Other Public Products
Issued by NWS Charleston, SC

Current Version | Previous Version | Text Only | Print | Product List | Glossary Off
Versions: 1 2 3 4 5 6 7 8 9 10 11 12 13 14 15 16 17 18 19 20 21 22 23 24 25 26 27 28 29 30 31 32 33 34 35 36 37 38 39 40 41 42 43 44 45 46 47 48 49 50

000
FPUS82 KCHS 091612
OPUCHS

TEST...KCHS/KSAV Gateway Observations...TEST
National Weather Service Charleston SC
1100 AM EST FRI DEC 09 2016

NOTE: "fair" indicates few or no clouds below 12,000 feet with no
significant weather and/or obstructions to visibility.

SCZ050-WAZ558-NCZ071-TXZ119-213-PAZ071-DCZ001-FLZ074-172-MI076-
NYZ176-178-MAZ016-IL014-TNZ027-NJZ106-GAZ044-MD014-091700-
...Gateway Observations for Charleston International...

CITY           SKY/WX    TMP DP  RH WIND       PRES   REMARKS
Chas Airport   MOSUNNY   47  19  33 N10       30.42F
Seattle        LGT RAIN  34  31  88 E10       29.97R WCI  26
Charlotte      SUNNY     38  15  39 NW10      30.44R WCI  31
Dallas DFW     PTSUNNY   34  13  41 E6        30.66R WCI  29
Dallas Love    PTSUNNY   34  16  47 E7        30.67S WCI  28
Philladelphia  PTSUNNY   36  17  46 W20G26    30.24R WCI  25
Wash National  MOSUNNY   37  17  44 NW18G26   30.34S WCI  27
Baltimore      MOSUNNY   36  17  46 W20G30    30.30S WCI  25
Miami          PTSUNNY   71  62  73 N8G20     30.20S
Detroit        PTSUNNY   31  22  69 W9G20     30.39R WCI  23
Newark         MOSUNNY   38  19  46 W24G31    30.13S WCI  27
Laguardia      PTSUNNY   39  20  46 NW18G28   30.11S WCI  30
J F K          PTSUNNY   39  18  42 W20G26    30.13S WCI  29
Boston Logan   MOSUNNY   35  13  40 NW24      29.96S WCI  23
Ft. Lauderdale CLOUDY    73  64  73 N13       30.20S
Chicago O`Hare FLURRIES  24  17  74 W12       30.53R WCI  13
Chicago Midway FLURRIES  25  15  66 W10       30.54R WCI  15
Houston Bush   PTSUNNY   40  22  48 NE10      30.61S WCI  33
Houston Hobby  PTSUNNY   42  25  50 NE17      30.59S
Nashville      MOSUNNY   30  15  53 NE5       30.63R WCI  25
Atlanta        SUNNY     35  17  47 NW10      30.49R WCI  27

$$

GAZ044-118-TXZ119-213-NCZ071-DCZ001-MDZ014-506-PAZ021-071-NJZ106-
NYZ176-178-MAZ106-OHZ011-021-055-MIZ076-KYZ091-ILZ014-INZ047-
MNZ060-091700-
...Gateway Observations for Savannah International...

CITY           SKY/WX    TMP DP  RH WIND       PRES   REMARKS
Savannah Arpt  MOSUNNY   49  21  33 N7        30.43F
Atlanta        SUNNY     35  17  47 NW10      30.49R WCI  27
Charlotte      SUNNY     38  15  39 NW10      30.44R WCI  31
Dallas DFW     PTSUNNY   34  13  41 E6        30.66R WCI  29
Houston Bush   PTSUNNY   40  22  48 NE10      30.61S WCI  33
Wash National  MOSUNNY   37  17  44 NW18G26   30.34S WCI  27
Wash Dulles    MOSUNNY   34  16  47 NW23G32   30.33S WCI  22
Baltimore      MOSUNNY   36  17  46 W20G30    30.30S WCI  25
Philadelphia   PTSUNNY   36  17  46 W20G26    30.24R WCI  25
Newark         MOSUNNY   38  19  46 W24G31    30.13S WCI  27
Laguardia      PTSUNNY   39  20  46 NW18G28   30.11S WCI  30
J F K          PTSUNNY   39  18  42 W20G26    30.13S WCI  29
Boston         MOSUNNY   35  13  40 NW24      29.96S WCI  23
Pittsburg      CLOUDY    25  18  74 W13       30.36R WCI  14
Akron          FLURRIES  24  18  77 W16       30.37S WCI  11
Cleveland      CLOUDY    27  18  69 SW17      30.42R WCI  14
Cincinnati     LGT SNOW  22  14  71 W12       30.55R WCI  10
Columbus         N/A     25  16  69 W14       30.50S WCI  13
Detroit        PTSUNNY   31  22  69 W9G20     30.39R WCI  23
Chicago O`Hare FLURRIES  24  17  74 W12       30.53R WCI  13
Minneapolis    LGT SNOW  13   8  81 SW8       30.56S FOG     WCI   2
Indianapolis   PTSUNNY   24  16  71 W12       30.56R WCI  13

$$




USA.gov is the U.S. government's official web portal to all federal, state and local government web resources and services.